Siga o Apolo11 no Facebook   Siga o Apolo11 no Twiiter
Ciência, Espaço e Tecnologia




Elementos Keplerianos formato Two Line

Para que um programa de rastreio possa saber a localização exata de qualquer satélite no espaço e assim poder rastreá-lo corretamente, é necessário que ele seja carregado com algumas informações.

Estas informações são chamadas de Elementos Orbitais ou Elementos Keplerianos e consistem em 2 linhas com dezenas de números. Esses números nada mais são que os parâmetros orbitais do satélite, tais como altitude, atitude, excentricidade da órbita, número de órbitas por dia, etc.

Com base nestas informações o programa é capaz de determinar com bastante exatidão a posição de qualquer satélite no espaço e nos informar em qual horário este estará dentro do alcance de nossa estação. Para que isso seja feito com precisão é necessário que os dados estejam sempre bem atualizadas.

Devido aos parâmetros orbitais serem descritos em 2 linhas, estes formato é também conhecido internacionalmente por 2line (leia-se Two Line”).

Para atualizar seu programa de rastreio basta copiar os dados disponibilizados e fornece-los ao programa. Nossos elementos orbitais são atualizados diariamente.

NOAATodos os satélites ambientais da série NOAA
30 DiasSatélites lançados nos últimos 30 dias
ISSSatélites e foguetes relacionados à Estação Espacial Internacional
HAMSatélites construídos por radiomadores
CUBESatélites tipo cubo, com 10 centímetros de lado
METEOSatélites voltados à previsão do tempo
EDUSatélites construídos e operados por universidades
VIS100 satélites mais brilhantes que podem ser vistos a olho nú



Satélites de Radioamadores
OSCAR 7 (AO-7)          
1 07530U 74089B   13198.02881148 -.00000031  00000-0  76794-4 0  7302
2 07530 101.4326 186.4535 0011504 228.3920 163.3291 12.53597289769528
PHASE 3B (AO-10)        
1 14129U 83058B   13195.53244198  .00000417  00000-0  00000+0 0   820
2 14129  26.5298 269.1221 6013198 274.4331  62.0178  2.05865601198292
UOSAT 2 (UO-11)         
1 14781U 84021B   13197.70170801  .00000276  00000-0  42362-4 0  2316
2 14781  97.9012 258.5893 0009146 183.5682 176.5467 14.80948084578309
PACSAT (AO-16)          
1 20439U 90005D   13197.83978848  .00000032  00000-0  27813-4 0  7941
2 20439  98.4717 137.1802 0012025  74.1739 319.7682 14.32189151226482
LUSAT (LO-19)           
1 20442U 90005G   13197.87368153  .00000030  00000-0  26766-4 0  7293
2 20442  98.4410 138.9041 0012885  65.0380 328.0933 14.32399298226684
EYESAT-1 (AO-27)        
1 22825U 93061C   13196.90377634  .00000016  00000-0  23540-4 0  4313
2 22825  98.6192 140.6270 0008209 196.4628 238.2292 14.29576062 32736
ITAMSAT (IO-26)         
1 22826U 93061D   13196.89036775  .00000020  00000-0  24780-4 0  1870
2 22826  98.6133 140.8946 0008856 190.0931 206.5857 14.29861463 32860
RADIO ROSTO (RS-15)     
1 23439U 94085A   13193.97926671 -.00000039  00000-0  10000-3 0  5950
2 23439  64.8169  20.2740 0151541 148.1275 212.8926 11.27558957763755
JAS-2 (FO-29)           
1 24278U 96046B   13198.16220135  .00000014  00000-0  46906-4 0  1569
2 24278  98.5536 252.7145 0351532  86.5585 335.6596 13.53003402835366
TECHSAT 1B (GO-32)      
1 25397U 98043D   13197.45022969 -.00000015  00000-0  11692-4 0  1147
2 25397  98.4170 163.9387 0001426 157.8364 348.3807 14.23349937780105
SEDSAT 1 (SO-33)        
1 25509U 98061B   13197.46071935  .00000244  00000-0  38098-4 0  5393
2 25509  31.4305 261.8767 0350962  54.2133  52.4800 14.29098098769088
ISS (ZARYA)             
1 25544U 98067A   13198.14651620  .00009960  00000-0  18303-3 0  2015
2 25544  51.6506 319.8639 0005082 189.9480 167.0474 15.49876943839340
PCSAT (NO-44)           
1 26931U 01043C   13197.50167888  .00000010  00000-0  36167-4 0  3737
2 26931  67.0510 183.9394 0007892 276.4215 229.5942 14.29940864615611
SAUDISAT 1C (SO-50)     
1 27607U 02058C   13198.12862147  .00000212  00000-0  53699-4 0  1173
2 27607  64.5566 172.9824 0041514 154.1471 286.8032 14.72998927568126
CUTE-1 (CO-55)          
1 27844U 03031E   13197.06128495  .00000134  00000-0  81385-4 0  6936
2 27844  98.7011 205.7138 0010383 159.8339 233.3274 14.21241505520839
CUBESAT XI-IV (CO-57)   
1 27848U 03031J   13198.05315833  .00000118  00000-0  74669-4 0  6405
2 27848  98.7096 206.2192 0010239 162.7307 230.6903 14.20965266520903
MOZHAYETS 4 (RS-22)     
1 27939U 03042A   13198.03982411  .00000567  00000-0  11525-3 0  5912
2 27939  97.8003  24.3292 0014525  91.6406 268.6450 14.64510358523664
ECHO (AO-51)            
1 28375U 04025K   13197.82179439  .00000046  00000-0  26947-4 0  6067
2 28375  98.2032 152.0956 0082095 286.5665 105.1644 14.41140310475603
HAMSAT (VO-52)          
1 28650U 05017B   13197.73529897  .00000636  00000-0  82042-4 0  4759
2 28650  97.5678 214.8222 0026324 179.9477 301.8365 14.83987186443469
CUBESAT XI-V (CO-58)    
1 28895U 05043F   13198.14452472  .00000329  00000-0  75780-4 0  5244
2 28895  97.8669  52.0009 0017078 352.3005   7.7932 14.61166887411312
CUTE-1.7+APD II (CO-65) 
1 32785U 08021C   13198.11076825  .00000669  00000-0  86530-4 0  6857
2 32785  97.7497 254.7905 0014125 203.2364 212.0412 14.83979513282313
DELFI-C3 (DO-64)        
1 32789U 08021G   13197.82848569  .00002819  00000-0  30619-3 0  6901
2 32789  97.7673 260.2263 0013636 191.8615 278.0819 14.88840211282533
YUBILEINY (RS-30)       
1 32953U 08025A   13198.00199847  .00000010  00000-0  00000+0 0   369
2 32953  82.4993  49.6503 0018471 164.4228 195.7430 12.43035180233615
PRISM                   
1 33493U 09002B   13198.17695169  .00002992  00000-0  34632-3 0  9903
2 33493  98.2215 356.1042 0019418  94.9831 265.3577 14.86192457242379
STARS                   
1 33498U 09002G   13197.50362038  .00000613  00000-0  10130-3 0   883
2 33498  98.1529 320.5280 0011403 247.7685 174.4980 14.73958053240588
KKS-1                   
1 33499U 09002H   13197.84026323  .00000374  00000-0  67123-4 0  1021
2 33499  98.1514 318.6819 0008802 250.2842 274.2821 14.72420280240489
SWISSCUBE               
1 35932U 09051B   13197.98174518  .00000380  00000-0  10178-3 0   656
2 35932  98.3603 305.4548 0006936 338.0741  22.0158 14.53614139202191
BEESAT                  
1 35933U 09051C   13198.04945775  .00000321  00000-0  86939-4 0  3518
2 35933  98.3589 306.1230 0005304 357.5682   2.5487 14.54014080202276
ITUPSAT1                
1 35935U 09051E   13198.19942872  .00000279  00000-0  78201-4 0  2560
2 35935  98.3684 306.4690 0007435 339.4200  20.6695 14.53366339202211
HOPE-1 (HO-68)          
1 36122U 09072B   13198.07263642 -.00000044  00000-0  00000+0 0  7293
2 36122 100.3031 254.3671 0007281 288.1593  71.8727 13.16305608172348
JUGNU                   
1 37839U 11058B   13198.13427993  .00000322  00000-0  30357-4 0  4225
2 37839  19.9617 125.3259 0018881 253.1877 253.6562 14.12167310 91130
SRMSAT                  
1 37841U 11058D   13198.15837661  .00000312  00000-0  26483-4 0  4243
2 37841  19.9719 137.8280 0011756 205.0901 279.7975 14.10235545 91003
RAX-2                   
1 37853U 11061D   13197.63197755  .00003667  00000-0  28109-3 0  5428
2 37853 101.7098  64.9190 0233994 303.1024  88.4701 14.83910217 92810
AUBIESAT-1 (AO-71)      
1 37854U 11061E   13198.19713903  .00002355  00000-0  18061-3 0  5373
2 37854 101.7117  66.6763 0233998 300.1132 177.5853 14.84661774 92910
M-CUBED & EXP-1 PRIME   
1 37855U 11061F   13197.65287093  .00003280  00000-0  24893-3 0  5402
2 37855 101.7134  65.6173 0234817 302.1054  89.0623 14.84305899 92825
CHIBIS-M (RS-39)        
1 38051U 11062C   13198.12333623  .00015725  00000-0  48763-3 0  6103
2 38051  51.6345  65.9911 0011362  20.6018 115.1022 15.33519403 82370


IMAGENS DE SATÉLITES !    Clique e conheça nosso Vídeo Workshop de sensoriamento remoto e imagens meteorológicas.
Apolo11.com - Todos os direitos reservados - 2001 - 2018
Política de Privacidade

"O acaso não existe; o que chamamos de acaso é o efeito de uma causa que não conhecemos" - Voltaire